Regional Weather Roundup
Issued by NWS

Home | Current Version | Previous Version | Graphics & Text | Print | Product List | Glossary On
Versions: 1 2 3 4 5 6 7 8 9 10 11 12 13 14 15 16 17 18 19 20 21 22 23 24 25 26 27 28 29 30 31 32 33 34 35 36 37 38 39 40 41 42 43 44 45 46 47 48 49 50
000
ASUS43 KLOT 020506
RWRIL

ILLINOIS REGIONAL WEATHER ROUNDUP
NATIONAL WEATHER SERVICE CHICAGO/ROMEOVILLE IL
1200 AM CDT TUE SEP 02 2014

NOTE: "FAIR" INDICATES FEW OR NO CLOUDS BELOW 12,000 FEET WITH NO
SIGNIFICANT WEATHER AND/OR OBSTRUCTIONS TO VISIBILITY.

* THESE STATIONS ARE NOT UNDER NWS QUALITY CONTROL. THEY ALSO MAY NOT
  REPORT WEATHER SUCH AS PRECIPITATION OR FOG.

ILZ001-002-007-009-015-016-024-020600-
NORTHWEST ILLINOIS

CITY           SKY/WX    TMP DP  RH WIND       PRES   REMARKS
MOLINE         LGT RAIN  69  66  90 SE5       29.86F
STERLING*      CLOUDY    70  66  88 W3        29.88S
SAVANNA*       CLOUDY    69  66  89 CALM      29.86F
$$

ILZ003-004-008-010-011-017-018-020600-
NORTH CENTRAL ILLINOIS

CITY           SKY/WX    TMP DP  RH WIND       PRES   REMARKS
ROCKFORD       CLOUDY    68  65  90 SW6       29.88R
FREEPORT*      CLOUDY    68  65  92 SW7       29.90R
ROCHELLE*      MOCLDY    68  66  92 SW6       29.89R
DE KALB*       MOCLDY    68  65  88 SW7       29.89R
PERU*          MOCLDY    71  67  86 W8        29.89R
$$

ILZ005-006-012>014-019>023-020600-
NORTHEAST ILLINOIS

CITY           SKY/WX    TMP DP  RH WIND       PRES   REMARKS
CHICAGO-OHARE  CLOUDY    72  66  81 W6        29.86R
CHICAGO-MIDWAY CLOUDY    76  68  76 SW13      29.86R
AURORA         MOCLDY    71  66  84 SW5       29.87R
LANSING*         N/A    N/A N/A N/A MISG        N/A
JOLIET*        CLOUDY    71  65  81 W3        29.88S
WAUKEGAN       PTCLDY    67  65  93 VRB3      29.84S
DUPAGE AIRPORT CLOUDY    70  67  90 SW5       29.87R
KANKAKEE*      CLOUDY    69  66  90 SW5       29.90S
WHEELING       MOCLDY    73  67  81 SW5       29.88R
MORRIS*        MOCLDY    71  67  87 W7        29.88R
ROMEOVILLE*    CLOUDY    70  67  90 SW5       29.87S
NORTHERLY ISL    N/A     75  65  70 W9          N/A
$$

LMZ740>746-020600-
SOUTHERN LAKE MICHIGAN

STATION/POSITION SKY/WX   TEMP    WIND        PRES    VSBY  WAVE
                          AIR SEA DIR/SP/G                  HT/PER
                          (F)     (DEG/KT/KT) (MB)    (MI)  (FT/S)
SOUTHERN BUOY              71 70  260/ 12/ 14 1009.9R         2/ 4
WAUKEGAN HARBOR            69     280/  7/  9   N/A
HARRISON CRIB              74     250/ 14/ 16   N/A
BURNHAM HARBOR             75     280/  4/ 11   N/A
CALUMET HARBOR             74     230/  5/  7 1010.1R
MICHIGAN CITY              73     190/ 16/ 19   N/A
MICHIGAN CITY 6N           74 72  210/ 14/ 16   N/A           2/ 3
ST. JOSEPH                 73 72  200/ 14/ 17   N/A           3/ 4
$$

ILZ025>027-034>036-040-047-049-050-058-095>099-020600-
WEST-CENTRAL ILLINOIS

CITY           SKY/WX    TMP DP  RH WIND       PRES   REMARKS
QUINCY         CLOUDY    70  68  93 S5        29.89F
GALESBURG*     CLOUDY    70  67  92 CALM      29.88F
MACOMB*        MOCLDY    69  67  93 CALM      29.89F
JACKSONVILLE*  CLOUDY    73  71  95 S5        29.90S
PITTSFIELD*    CLOUDY    71  69  92 S3        29.91R
$$

ILZ028>032-037-038-041>044-048-051>054-059>061-020600-
CENTRAL ILLINOIS

CITY           SKY/WX    TMP DP  RH WIND       PRES   REMARKS
PONTIAC        CLOUDY    73  70  88 W3        29.88F
DECATUR        LGT RAIN  71  69  93 S6        29.89F
PEORIA         CLOUDY    72  66  81 CALM      29.88F
LACON*         CLOUDY    71  66  84 CALM      29.88S
LINCOLN*       CLOUDY    73  69  89 CALM      29.87F
SPRINGFIELD    LGT RAIN  71  69  93 S6        29.89F
TAYLORVILLE    RAIN      68  68 100 CALM      29.89F
$$

ILZ033-039-045-046-055>057-062-063-020600-
EAST-CENTRAL ILLINOIS

CITY           SKY/WX    TMP DP  RH WIND       PRES   REMARKS
CHAMPAIGN      RAIN      71  67  87 SW8       29.91F
DANVILLE*      RAIN      70  68  92 SW12G17   29.90F
MATTOON        LGT RAIN  69  67  93 S9        29.94F
PARIS*         LGT RAIN  72  69  92 W8        29.94R
$$

ILZ079-100>102-020600-
SOUTHWEST ILLINOIS

CITY           SKY/WX    TMP DP  RH WIND       PRES   REMARKS
BELLEVILLE     TSTM      71  71  97 VRB7      29.93R FOG
CAHOKIA*       HVY RAIN  69  68  96 NE6       29.91F FOG
SPARTA*        LGT RAIN  78  73  85 S7        29.93R
$$

ILZ064>066-069>071-074>076-080>082-084>086-088>090-092>094-020600-
SOUTH-CENTRAL ILLINOIS

CITY           SKY/WX    TMP DP  RH WIND       PRES   REMARKS
CARBONDALE     CLOUDY    76  72  87 S8        29.92R
CAIRO*         MOCLDY    80  72  77 S6        29.93R HX  83
EFFINGHAM*     TSTM      70  67  89 NW3       29.98R
MARION         CLOUDY    79  73  83 S10       29.94R HX  82
MT. VERNON     CLOUDY    77  70  78 SW9       29.92R
CENTRALIA*     CLOUDY    75  70  83 S10G16    29.92R
SALEM*         CLOUDY    76  73  92 CALM      29.92R
METROPOLIS*    PTCLDY    78  72  81 S5        29.94S HX  81
$$

ILZ067-068-072-073-078-083-087-091-020600-
SOUTHEAST ILLINOIS

CITY           SKY/WX    TMP DP  RH WIND       PRES   REMARKS
LAWRENCEVILLE  CLOUDY    75  72  90 S7        29.92F
FLORA*         CLOUDY    74  72  93 S5        29.91R
FAIRFIELD*     CLOUDY    77  75  94 S3        29.91R
HARRISBURG*    MOCLDY    78  73  86 S6        29.94R HX  80
ROBINSON*      CLOUDY    75  73  92 S3        29.92R
CARMI*         MOCLDY    77  75  92 S7        29.92S
$$

ABBREVIATIONS USED IN REMARKS
   TC - TEMPERATURE IN CELSIUS
  WCI - WIND CHILL INDEX
   HX - HEAT INDEX
  VSB - VISIBILITY
$$




USA.gov is the U.S. government's official web portal to all federal, state and local government web resources and services.